Tracking 20036 objects as of 22-Nov-2019
Live streaming from Space Station
objects crossing your sky now

THORAD AGENA D DEB

Track THORAD AGENA D DEB now!
10-day predictions


NORAD ID: 4435
Int'l Code: 1969-082EG
Perigee: 684.7 km
Apogee: 714.5 km
Inclination: 70.0 °
Period: 98.6 minutes
Semi major axis: 7070 km
RCS: 0.0609 m2 (small)
Launch date: September 30, 1969
Source: United States (US)
Launch site: AIR FORCE WESTERN TEST RANGE (AFWTR)

Note: This is SATELLITE DEBRIS
aabbcc
Your satellite tracking list
Your tracking list is empty




NASA's NSSDC Master Catalog

Two Line Element Set (TLE):
1  4435U 69082EG  19325.15178981  .00000459  00000-0  10877-3 0  9995
2  4435  70.0231 343.3269 0021103 177.2521 182.8739 14.60225584615011
Source of the keplerian elements: AFSPC